Theta_e
349 349 347 347 348 347 347 345 345 347 347 346 345 345 345 345 343 343 344 343 342 343 343 343 343 343 345 347 349 349 346 345 345 346 345 344 343 346 348 348 349 349
347 347 346 347 347 346 347 346 345 347 347 346 346 346 346 346 347 349 347 343 341 341 342 343 342 342 343 344 346 346 344 344 347 346 344 343 342 344 347 347 349 349
345 346 347 346 345 346 348 347 346 347 346 348 348 347 347 347 349 351 349 344 342 341 342 343 343 342 342 342 343 343 342 344 346 345 343 344 345 345 347 348 351 352
345 345 347 346 346 347 348 347 348 348 347 350 350 348 348 347 348 349 348 345 343 342 342 343 343 342 341 341 342 343 342 343 344 343 344 345 344 344 347 349 352 353
347 346 346 346 346 348 348 348 350 350 349 350 351 349 347 347 346 347 347 346 345 344 343 343 343 342 341 340 342 344 343 344 344 343 344 345 343 343 346 349 353 353
347 346 347 348 349 348 348 348 349 350 350 349 350 350 349 348 347 347 346 345 346 345 343 343 343 342 342 341 342 344 344 344 344 344 345 346 345 344 345 349 354 354
344 345 347 350 351 349 347 349 350 349 349 349 351 352 351 351 350 348 346 345 345 344 344 344 344 343 343 342 342 344 345 344 344 346 348 347 346 345 345 347 351 352
342 344 347 349 351 350 348 349 351 350 349 350 352 352 352 352 352 350 347 346 345 344 345 345 345 345 344 344 344 345 345 344 344 347 349 348 346 346 345 346 347 348
344 343 346 349 351 351 349 350 352 353 353 353 352 352 351 351 352 351 350 350 348 346 347 348 349 349 346 344 345 345 344 345 345 347 350 352 350 346 344 346 347 348
349 346 346 347 350 350 350 353 355 354 354 354 352 352 352 351 352 352 352 353 351 351 354 353 352 352 349 347 347 347 347 346 346 348 351 353 352 348 346 348 351 352
351 351 350 347 349 351 351 353 355 354 354 354 353 353 353 353 353 353 354 354 353 354 356 355 354 354 352 350 348 350 351 349 348 350 351 352 353 351 349 350 352 352
351 353 353 350 350 352 353 353 354 354 354 353 354 354 354 354 354 353 354 354 353 353 354 354 354 354 353 351 349 351 354 353 352 352 351 352 353 351 349 349 349 348
351 351 352 352 351 351 352 352 352 352 353 353 354 354 353 354 354 354 354 354 354 354 352 351 352 352 352 350 350 353 356 356 355 355 354 354 353 352 351 350 350 349
351 351 351 352 351 350 349 350 350 350 349 349 350 351 352 353 353 353 353 354 354 355 355 353 353 354 354 350 349 353 356 356 357 357 356 355 353 353 352 351 350 349
349 350 351 350 350 349 348 347 348 348 347 346 346 347 349 351 352 352 352 352 353 355 356 354 354 355 355 353 351 351 352 354 356 356 355 354 353 352 352 351 350 348
348 348 349 349 349 348 347 346 347 347 347 346 346 346 346 347 350 350 350 350 350 351 352 353 353 354 355 355 353 350 350 351 352 353 353 353 352 352 351 351 350 348
349 348 347 347 348 348 346 346 345 345 346 348 348 347 346 345 347 348 347 347 348 347 348 350 351 351 351 352 351 349 349 348 348 350 351 352 351 351 350 350 350 349
352 351 348 347 349 349 347 346 345 345 345 347 349 348 347 345 346 347 348 348 347 347 347 348 347 347 347 348 348 348 347 346 347 348 349 350 349 350 350 350 349 349
352 352 350 348 347 348 347 346 345 345 344 345 347 347 347 346 346 346 346 347 346 347 347 346 345 344 344 345 346 347 346 346 347 349 349 348 347 346 347 348 348 348
353 352 350 347 345 345 345 345 344 344 344 344 345 346 346 346 346 346 346 346 346 346 347 346 345 344 343 344 345 346 345 345 346 348 348 347 346 345 345 344 344 345
354 354 351 348 346 345 345 345 343 340 340 343 345 346 346 346 346 346 346 346 345 345 345 346 346 345 344 343 343 343 343 344 345 347 347 347 346 346 345 343 341 340
355 356 354 351 350 349 348 346 343 340 340 343 345 346 346 346 346 347 347 347 348 347 346 346 345 344 344 343 343 342 343 344 345 345 346 346 345 345 346 344 341 339
354 355 355 355 354 354 351 347 345 344 344 347 348 347 347 346 346 347 347 348 349 349 348 348 348 346 345 345 345 344 344 345 347 347 346 346 347 347 347 345 342 340
355 355 356 356 355 354 352 350 350 349 350 350 350 349 348 347 347 347 347 347 347 348 349 350 351 350 349 348 347 347 346 347 348 349 349 349 349 348 347 346 344 343
354 354 355 354 354 353 352 351 351 351 350 350 349 348 347 346 346 347 347 347 348 349 350 350 352 352 351 351 350 349 350 350 349 348 346 346 347 348 348 348 348 347
351 352 352 352 351 351 351 351 351 350 350 349 348 349 349 349 349 349 350 350 350 351 351 351 351 352 352 352 352 352 352 351 350 349 347 346 348 349 350 351 350 350
Wind_Speed
17 17 15 15 14 13 14 15 14 13 13 14 13 12 12 11 11 11 11 11 10 10 10 9 9 8 8 8 8 7 6 6 6 5 6 7 7 8 7 6 4 3
16 16 15 15 14 13 13 13 13 13 13 13 12 12 12 11 12 11 11 12 11 10 10 9 9 8 7 7 8 7 6 6 6 6 6 6 6 6 6 5 4 4
17 16 15 15 14 14 13 12 12 13 12 12 12 12 11 11 12 12 12 11 11 11 11 10 10 9 8 8 8 8 7 6 6 7 5 5 5 5 6 6 5 4
19 17 15 15 14 13 13 13 13 13 12 12 11 11 11 11 12 13 12 10 11 11 11 10 10 10 10 9 8 8 8 7 7 7 4 4 6 5 6 6 6 5
19 18 16 15 14 13 13 13 13 12 12 12 11 10 12 12 12 12 11 11 11 11 11 11 10 10 11 10 9 9 8 7 8 7 5 5 6 6 6 6 6 7
18 17 17 16 15 14 14 13 13 12 12 12 11 11 11 12 12 12 11 11 12 11 11 10 10 10 10 10 10 9 8 8 9 9 7 6 6 7 7 6 6 7
18 17 18 18 16 14 14 14 12 12 12 12 12 11 11 12 11 10 11 12 12 11 10 10 10 10 10 9 9 9 8 9 9 8 7 6 6 7 8 8 7 8
18 17 17 18 16 15 14 14 13 12 11 10 11 11 11 11 10 10 10 10 11 11 11 10 10 9 9 9 9 9 9 9 9 7 5 4 5 6 7 7 8 8
17 18 18 17 16 15 15 14 13 12 10 10 10 11 11 11 10 10 10 9 10 10 9 10 10 9 9 9 9 9 9 9 9 7 6 6 6 7 7 6 6 7
17 17 17 17 17 15 15 14 11 10 11 10 9 10 11 11 10 10 9 8 9 10 9 10 10 9 9 9 8 9 8 8 9 8 9 8 7 6 7 5 5 5
18 17 16 16 16 14 14 14 13 12 12 11 9 10 11 10 10 10 11 10 9 12 13 13 12 10 10 9 9 9 8 7 8 9 11 11 9 8 8 7 6 7
19 19 17 14 14 14 12 12 13 14 13 11 11 11 11 11 10 10 13 13 11 11 14 14 13 12 12 10 9 9 9 8 8 9 10 11 10 9 7 6 5 5
18 18 17 15 14 15 14 11 11 12 12 11 12 13 13 12 12 12 13 14 14 13 13 13 12 12 12 12 11 10 11 11 10 9 9 9 8 7 6 5 6 7
20 18 17 16 14 14 15 14 13 12 11 10 11 13 13 13 14 14 14 15 15 14 12 12 11 11 11 12 11 11 13 14 12 11 10 9 8 8 7 7 8 9
22 20 19 18 16 13 14 16 15 14 13 12 11 11 12 13 13 13 13 14 15 13 12 12 13 13 12 12 11 11 13 14 13 11 9 8 9 9 9 10 10 10
20 22 21 20 18 14 15 17 16 13 13 14 14 13 12 12 13 13 13 12 11 11 10 11 13 14 14 13 12 10 9 11 12 12 10 9 9 10 11 11 12 12
18 19 21 21 19 16 15 18 19 16 13 12 14 15 14 13 12 12 11 10 10 10 11 12 13 14 14 13 12 10 9 9 10 10 11 11 12 12 12 11 11 11
20 18 18 21 22 20 18 19 20 19 17 13 14 16 16 15 15 12 11 11 11 11 13 16 16 15 14 12 12 12 11 11 11 11 11 12 13 13 12 10 9 9
23 21 20 22 25 25 24 23 22 22 22 19 16 16 17 18 19 19 17 16 14 12 13 15 16 16 15 15 15 15 14 14 14 14 15 15 15 14 14 12 12 11
26 25 23 23 25 26 26 26 26 25 24 24 22 20 19 19 20 21 21 21 20 19 18 16 16 15 14 15 16 16 16 16 17 18 19 19 18 18 17 17 17 17
28 28 27 25 25 25 26 26 26 24 24 25 25 25 24 24 23 22 22 23 24 24 24 22 21 20 18 17 16 16 16 17 19 20 21 20 19 19 20 19 19 20
29 29 28 27 26 25 25 25 25 24 23 25 26 27 27 27 26 25 24 24 24 25 25 25 25 25 24 23 22 20 18 18 20 21 21 21 21 21 21 21 20 20
28 28 27 26 25 25 26 26 25 24 23 23 24 25 26 25 25 25 25 24 25 25 24 25 25 24 25 26 25 24 22 21 21 21 22 22 22 22 21 21 20 20
24 25 24 24 23 24 25 24 23 23 22 21 21 22 23 23 23 23 24 24 26 26 26 25 25 24 25 26 25 24 23 23 23 22 22 21 21 22 21 21 21 21
20 19 20 20 21 22 22 23 24 24 23 22 22 21 21 22 23 24 25 26 27 27 28 27 27 27 26 26 26 24 23 23 23 23 22 22 22 22 22 22 23 22
17 16 16 17 18 19 19 20 22 22 21 22 22 21 21 22 23 24 25 25 26 26 26 27 28 27 26 26 26 24 23 22 21 21 21 22 21 20 19 20 20 21
Wind_Direction
188 189 189 189 190 187 190 193 194 194 190 191 194 194 193 186 189 192 180 185 202 199 193 198 198 192 197 202 193 189 192 187 182 176 179 186 187 191 185 177 200 232
190 193 189 189 190 187 188 191 192 193 192 192 192 194 199 190 186 196 192 191 202 204 199 202 206 202 202 200 193 197 202 191 192 193 190 195 197 202 194 176 178 210
189 191 191 190 189 187 186 184 186 190 190 191 191 194 203 195 190 203 206 198 201 206 206 206 209 210 212 208 199 204 206 195 205 208 202 210 212 212 203 181 180 221
188 190 191 190 190 190 186 181 185 189 189 192 192 192 200 201 200 209 214 207 204 209 210 209 210 211 216 217 211 214 213 207 216 219 214 223 221 216 215 204 203 221
190 191 193 191 192 192 189 188 189 187 189 195 196 194 198 204 206 209 212 211 211 215 214 214 214 210 214 218 215 217 219 215 225 231 225 229 232 228 228 221 214 222
193 193 192 193 194 192 192 195 192 189 192 196 197 196 199 207 209 207 210 213 216 218 218 219 218 214 215 219 219 222 224 221 227 234 230 229 238 240 238 231 230 243
195 192 191 193 196 192 192 196 194 194 196 196 197 198 200 206 209 209 210 213 216 217 221 223 219 218 219 219 220 223 227 229 231 237 236 229 232 240 242 240 245 253
197 194 193 195 195 192 193 196 195 192 194 195 200 206 206 207 214 218 213 211 214 215 218 220 215 217 223 223 225 225 227 233 235 240 250 256 256 254 249 244 249 259
204 198 196 195 194 195 194 192 191 191 193 198 205 214 216 212 215 222 217 212 214 213 216 223 218 218 225 228 229 227 228 234 235 237 245 254 265 265 255 249 251 262
207 201 200 199 195 196 192 185 190 202 205 208 210 210 213 216 218 219 222 226 216 207 219 236 234 229 231 232 231 229 228 232 234 238 244 251 262 263 252 254 267 277
202 200 206 205 197 196 194 187 193 210 216 214 212 210 209 213 216 211 219 237 231 213 219 234 239 238 238 236 234 234 234 236 236 239 246 252 260 266 259 255 263 272
200 197 203 207 198 199 204 200 197 207 217 212 208 219 220 214 213 208 212 231 243 233 225 229 235 238 241 243 239 237 245 256 254 246 247 250 259 269 270 264 270 286
203 198 197 203 203 199 204 213 211 209 218 217 213 221 224 217 219 218 215 224 238 242 237 235 239 241 243 246 239 230 239 254 261 260 259 260 265 276 286 291 295 303
203 200 194 199 208 204 198 206 219 223 227 228 223 224 224 222 224 224 222 227 235 239 235 234 242 247 248 249 241 227 229 240 250 256 259 262 262 266 279 285 285 291
204 202 197 195 204 212 204 202 213 227 233 231 229 229 229 228 228 227 229 232 234 234 232 232 238 244 247 248 248 241 236 239 243 245 253 263 262 257 259 262 265 272
209 205 203 195 197 211 213 207 207 215 224 228 229 230 231 231 230 231 234 236 235 237 240 239 237 239 242 242 244 248 246 247 248 246 246 256 262 259 257 258 262 262
216 212 206 197 199 209 213 212 214 215 214 212 214 218 224 229 231 236 240 239 242 246 245 241 239 241 243 241 239 239 242 250 257 251 245 246 252 256 259 265 271 271
215 215 208 201 204 209 209 211 218 222 220 207 195 197 205 211 215 219 220 222 233 240 235 235 242 247 248 245 241 239 240 248 254 252 247 249 251 251 252 261 273 278
211 213 210 206 207 209 209 210 214 220 223 218 206 199 200 204 210 215 217 220 229 236 236 236 240 245 246 245 245 246 247 247 245 244 245 252 258 257 254 257 259 259
209 212 213 211 210 211 213 215 218 220 222 222 222 219 214 212 216 221 225 229 231 236 242 245 244 242 241 241 242 245 248 247 244 241 243 250 259 263 266 267 260 254
208 211 216 216 214 215 217 219 222 223 223 225 229 230 228 226 227 228 232 235 235 235 238 243 246 248 248 248 246 245 247 246 244 242 243 248 256 262 268 271 264 257
211 212 217 218 216 216 219 221 222 224 224 223 226 231 233 233 233 233 234 236 235 236 238 240 243 247 250 254 255 253 250 246 243 243 245 249 255 261 268 272 267 259
216 217 218 218 216 215 219 223 223 223 223 222 224 228 232 234 237 237 237 236 236 237 240 241 242 244 247 251 253 253 251 247 244 246 247 251 257 263 269 272 268 263
218 218 218 218 216 215 216 219 220 219 220 223 226 229 232 235 240 240 239 240 240 239 240 241 242 244 247 249 250 250 250 247 246 248 252 256 260 264 267 269 269 268
222 221 223 225 223 219 216 218 221 220 222 226 230 232 234 237 240 242 240 240 241 240 240 242 244 246 248 250 251 252 251 248 248 250 255 259 262 265 268 268 267 267
230 224 223 225 227 225 221 223 226 225 226 230 230 229 232 233 233 235 237 238 240 241 241 243 246 247 249 252 255 256 255 252 251 252 255 259 262 264 264 263 263 263